Time,TemperatureF,DewpointF,PressureIn,WindDirection,WindDirectionDegrees,WindSpeedMPH,WindSpeedGustMPH,Humidity,HourlyPrecipIn,Conditions,Clouds,dailyrainin,SoftwareType,DateUTC
2013-03-13 00:00:00,40.6,34.9,29.91,WNW,291,2.1,7.3,80,0.00,,CLR,0.00,VWS V14.01,2013-03-13 04:00:00,
2013-03-13 00:05:00,40.5,34.5,29.92,West,270,5.5,8.1,79,0.00,,CLR,0.00,VWS V14.01,2013-03-13 04:05:00,
2013-03-13 00:10:00,40.5,34.6,29.92,NW,308,2.9,8.3,79,0.00,,CLR,0.00,VWS V14.01,2013-03-13 04:10:00,
2013-03-13 00:15:00,40.5,34.3,29.92,West,260,4.7,7.5,78,0.00,,CLR,0.00,VWS V14.01,2013-03-13 04:15:00,
2013-03-13 00:20:00,40.4,34.2,29.92,West,274,3.2,8.1,78,0.00,,CLR,0.00,VWS V14.01,2013-03-13 04:20:00,
2013-03-13 00:25:00,40.2,34.1,29.92,WNW,292,1.1,8.1,79,0.00,,CLR,0.00,VWS V14.01,2013-03-13 04:25:00,
2013-03-13 00:30:00,40.2,34.0,29.92,West,267,1.4,5.6,78,0.00,,CLR,0.00,VWS V14.01,2013-03-13 04:30:00,
2013-03-13 00:35:00,40.2,34.0,29.92,WSW,256,2.4,7.0,78,0.00,,CLR,0.00,VWS V14.01,2013-03-13 04:35:00,
2013-03-13 00:40:00,39.9,33.8,29.92,West,263,2.4,7.0,78,0.00,,CLR,0.00,VWS V14.01,2013-03-13 04:40:00,
2013-03-13 00:45:00,39.7,33.5,29.92,WNW,290,3.5,5.5,78,0.00,,CLR,0.00,VWS V14.01,2013-03-13 04:45:00,
2013-03-13 00:50:00,39.7,33.8,29.92,WNW,291,3.1,6.5,79,0.00,,CLR,0.00,VWS V14.01,2013-03-13 04:50:00,
2013-03-13 00:55:00,39.5,33.6,29.92,West,280,6.0,6.8,79,0.00,,CLR,0.00,VWS V14.01,2013-03-13 04:55:00,
2013-03-13 01:00:00,39.6,33.9,29.92,West,278,3.0,3.0,80,0.00,,OVC042,0.00,VWS V14.01,2013-03-13 05:00:00,
2013-03-13 01:05:00,39.4,33.7,29.92,WSW,253,0.0,6.0,80,0.00,,OVC042,0.00,VWS V14.01,2013-03-13 05:05:00,
2013-03-13 01:10:00,39.5,33.8,29.92,West,278,0.9,6.0,80,0.00,,OVC042,0.00,VWS V14.01,2013-03-13 05:10:00,
2013-03-13 01:15:00,39.8,34.2,29.92,SW,228,0.0,0.0,80,0.00,,OVC042,0.00,VWS V14.01,2013-03-13 05:15:00,
2013-03-13 01:20:00,39.8,34.1,29.92,WSW,246,0.7,5.8,80,0.00,,OVC042,0.00,VWS V14.01,2013-03-13 05:20:00,
2013-03-13 01:25:00,40.1,33.7,29.92,WNW,295,2.1,6.4,78,0.00,,OVC042,0.00,VWS V14.01,2013-03-13 05:25:00,
2013-03-13 01:30:00,40.1,33.8,29.92,West,264,3.4,3.7,78,0.00,,OVC042,0.00,VWS V14.01,2013-03-13 05:30:00,
2013-03-13 01:35:00,40.3,33.7,29.92,WNW,295,3.5,7.4,77,0.00,,OVC042,0.00,VWS V14.01,2013-03-13 05:35:00,
2013-03-13 01:40:00,40.4,33.8,29.92,WSW,246,1.2,11.9,77,0.00,,OVC042,0.00,VWS V14.01,2013-03-13 05:40:00,
2013-03-13 01:45:00,40.3,33.8,29.92,West,270,3.9,5.2,77,0.00,,OVC042,0.00,VWS V14.01,2013-03-13 05:45:00,
2013-03-13 01:50:00,40.1,33.1,29.93,West,280,6.8,9.1,76,0.00,,OVC042,0.00,VWS V14.01,2013-03-13 05:50:00,
2013-03-13 01:55:00,40.3,33.3,29.93,WSW,256,4.2,9.8,76,0.00,,OVC042,0.00,VWS V14.01,2013-03-13 05:55:00,
2013-03-13 02:00:00,40.3,33.3,29.93,NNW,342,2.1,3.7,76,0.00,,OVC042,0.00,VWS V14.01,2013-03-13 06:00:00,
2013-03-13 02:05:00,40.3,33.6,29.93,West,278,0.0,5.1,77,0.00,,OVC044,0.00,VWS V14.01,2013-03-13 06:05:00,
2013-03-13 02:10:00,40.1,32.9,29.92,West,277,5.8,8.3,75,0.00,,OVC044,0.00,VWS V14.01,2013-03-13 06:10:00,
2013-03-13 02:15:00,40.0,33.0,29.92,WNW,287,0.0,0.0,76,0.00,,OVC044,0.00,VWS V14.01,2013-03-13 06:15:00,
2013-03-13 02:20:00,39.8,33.1,29.93,WNW,284,1.1,5.5,77,0.00,,OVC044,0.00,VWS V14.01,2013-03-13 06:20:00,
2013-03-13 02:25:00,39.6,32.3,29.93,West,277,4.8,6.2,75,0.00,,OVC044,0.00,VWS V14.01,2013-03-13 06:25:00,
2013-03-13 02:30:00,39.5,32.2,29.93,West,266,2.0,4.8,75,0.00,,OVC044,0.00,VWS V14.01,2013-03-13 06:30:00,
2013-03-13 02:35:00,39.4,32.0,29.92,West,281,0.0,6.3,75,0.00,,OVC044,0.00,VWS V14.01,2013-03-13 06:35:00,
2013-03-13 02:40:00,39.3,31.9,29.92,West,280,2.3,6.3,75,0.00,,OVC044,0.00,VWS V14.01,2013-03-13 06:40:00,
2013-03-13 02:45:00,39.4,32.0,29.92,WNW,292,0.0,2.0,75,0.00,,OVC044,0.00,VWS V14.01,2013-03-13 06:45:00,
2013-03-13 02:50:00,39.3,32.0,29.93,WSW,239,0.0,3.0,75,0.00,,OVC044,0.00,VWS V14.01,2013-03-13 06:50:00,
2013-03-13 02:55:00,39.3,31.6,29.92,West,269,1.1,5.5,74,0.00,,OVC044,0.00,VWS V14.01,2013-03-13 06:55:00,
2013-03-13 03:00:00,39.0,31.5,29.93,West,263,0.0,0.0,74,0.00,,FEW046,0.00,VWS V14.01,2013-03-13 07:00:00,
2013-03-13 03:05:00,38.7,30.8,29.92,NW,308,2.3,6.8,73,0.00,,FEW046,0.00,VWS V14.01,2013-03-13 07:05:00,
2013-03-13 03:10:00,38.8,30.8,29.92,West,266,3.9,6.8,73,0.00,,FEW046,0.00,VWS V14.01,2013-03-13 07:10:00,
2013-03-13 03:15:00,38.9,30.6,29.92,West,281,0.0,2.1,72,0.00,,FEW046,0.00,VWS V14.01,2013-03-13 07:15:00,
2013-03-13 03:20:00,38.5,30.1,29.92,West,270,4.9,5.0,72,0.00,,FEW046,0.00,VWS V14.01,2013-03-13 07:20:00,
2013-03-13 03:25:00,39.0,30.4,29.93,WSW,253,0.0,7.1,71,0.00,,FEW046,0.00,VWS V14.01,2013-03-13 07:25:00,
2013-03-13 03:30:00,38.8,30.3,29.92,West,273,0.0,2.4,71,0.00,,FEW046,0.00,VWS V14.01,2013-03-13 07:30:00,
2013-03-13 03:35:00,38.5,30.3,29.92,WSW,248,0.7,2.5,72,0.00,,FEW046,0.00,VWS V14.01,2013-03-13 07:35:00,
2013-03-13 03:40:00,38.4,30.1,29.92,NW,307,4.5,5.4,72,0.00,,FEW046,0.00,VWS V14.01,2013-03-13 07:40:00,
2013-03-13 03:45:00,38.5,29.9,29.92,SW,236,0.0,2.1,71,0.00,,FEW046,0.00,VWS V14.01,2013-03-13 07:45:00,
2013-03-13 03:50:00,38.5,30.1,29.92,SW,236,0.0,2.1,72,0.00,,FEW046,0.00,VWS V14.01,2013-03-13 07:50:00,
2013-03-13 03:55:00,38.2,30.0,29.92,West,273,2.2,3.2,72,0.00,,FEW046,0.00,VWS V14.01,2013-03-13 07:55:00,
2013-03-13 04:00:00,37.9,29.9,29.92,West,263,0.0,0.0,73,0.00,,FEW046,0.00,VWS V14.01,2013-03-13 08:00:00,
2013-03-13 04:06:00,38.0,29.9,29.92,West,263,0.0,0.0,72,0.00,,FEW048,0.00,VWS V14.01,2013-03-13 08:06:00,
2013-03-13 04:11:00,38.1,30.1,29.92,West,263,0.0,0.0,73,0.00,,FEW048,0.00,VWS V14.01,2013-03-13 08:11:00,
2013-03-13 04:16:00,37.7,30.0,29.91,West,263,0.0,0.0,73,0.00,,FEW048,0.00,VWS V14.01,2013-03-13 08:16:00,
2013-03-13 04:21:00,37.6,29.9,29.91,West,263,0.0,0.0,74,0.00,,FEW048,0.00,VWS V14.01,2013-03-13 08:21:00,
2013-03-13 04:26:00,37.6,30.2,29.92,West,263,0.0,0.0,74,0.00,,FEW048,0.00,VWS V14.01,2013-03-13 08:26:00,
2013-03-13 04:31:00,37.3,30.0,29.91,West,263,0.0,0.0,75,0.00,,FEW048,0.00,VWS V14.01,2013-03-13 08:31:00,
2013-03-13 04:36:00,37.1,30.0,29.91,West,263,0.0,0.0,75,0.00,,FEW048,0.00,VWS V14.01,2013-03-13 08:36:00,
2013-03-13 04:41:00,36.9,31.0,29.91,West,263,0.0,0.0,79,0.00,,FEW048,0.00,VWS V14.01,2013-03-13 08:41:00,
2013-03-13 04:46:00,35.8,30.3,29.92,West,263,0.0,0.0,80,0.00,,FEW048,0.00,VWS V14.01,2013-03-13 08:46:00,
2013-03-13 04:51:00,35.5,30.0,29.92,West,263,0.0,0.0,80,0.00,,FEW048,0.00,VWS V14.01,2013-03-13 08:51:00,
2013-03-13 04:56:00,35.5,29.9,29.92,West,263,0.0,0.0,80,0.00,,FEW048,0.00,VWS V14.01,2013-03-13 08:56:00,
2013-03-13 05:02:00,35.2,29.7,29.92,West,263,0.0,0.0,80,0.00,,CLR,0.00,VWS V14.01,2013-03-13 09:02:00,
2013-03-13 05:07:00,34.9,30.1,29.92,West,263,0.0,0.0,83,0.00,,CLR,0.00,VWS V14.01,2013-03-13 09:07:00,
2013-03-13 05:12:00,34.6,30.1,29.93,West,263,0.0,0.0,83,0.00,,CLR,0.00,VWS V14.01,2013-03-13 09:12:00,
2013-03-13 05:17:00,34.3,30.2,29.93,West,263,0.0,0.0,85,0.00,,CLR,0.00,VWS V14.01,2013-03-13 09:17:00,
2013-03-13 05:22:00,34.3,29.7,29.93,West,263,0.0,0.0,83,0.00,,CLR,0.00,VWS V14.01,2013-03-13 09:22:00,
2013-03-13 05:27:00,34.2,29.7,29.93,West,263,0.0,0.0,83,0.00,,CLR,0.00,VWS V14.01,2013-03-13 09:27:00,
2013-03-13 05:32:00,34.0,29.6,29.93,West,263,0.0,0.0,84,0.00,,CLR,0.00,VWS V14.01,2013-03-13 09:32:00,
2013-03-13 05:37:00,33.7,29.3,29.93,West,263,0.0,0.0,84,0.00,,CLR,0.00,VWS V14.01,2013-03-13 09:37:00,
2013-03-13 05:42:00,33.9,29.7,29.93,West,263,0.0,0.0,84,0.00,,CLR,0.00,VWS V14.01,2013-03-13 09:42:00,
2013-03-13 05:47:00,33.6,29.6,29.93,West,263,0.0,0.0,85,0.00,,CLR,0.00,VWS V14.01,2013-03-13 09:47:00,
2013-03-13 05:52:00,33.5,29.7,29.93,West,263,0.0,0.0,86,0.00,,CLR,0.00,VWS V14.01,2013-03-13 09:52:00,
2013-03-13 05:57:00,33.5,29.6,29.93,West,263,0.0,0.0,85,0.00,,CLR,0.00,VWS V14.01,2013-03-13 09:57:00,
2013-03-13 06:02:00,33.4,29.3,29.93,West,263,0.0,0.0,85,0.00,,CLR,0.00,VWS V14.01,2013-03-13 10:02:00,
2013-03-13 06:07:00,33.7,29.6,29.93,West,263,0.0,0.0,85,0.00,,CLR,0.00,VWS V14.01,2013-03-13 10:07:00,
2013-03-13 06:12:00,33.6,29.7,29.93,West,263,0.0,0.0,85,0.00,,CLR,0.00,VWS V14.01,2013-03-13 10:12:00,
2013-03-13 06:17:00,33.3,30.0,29.93,West,263,0.0,0.0,87,0.00,,CLR,0.00,VWS V14.01,2013-03-13 10:17:00,
2013-03-13 06:22:00,33.1,30.4,29.93,West,263,0.0,0.0,90,0.00,,CLR,0.00,VWS V14.01,2013-03-13 10:22:00,
2013-03-13 06:27:00,32.5,29.8,29.93,West,263,0.0,0.0,90,0.00,,CLR,0.00,VWS V14.01,2013-03-13 10:27:00,
2013-03-13 06:32:00,32.3,29.3,29.94,West,263,0.0,0.0,89,0.00,,CLR,0.00,VWS V14.01,2013-03-13 10:32:00,
2013-03-13 06:37:00,32.1,29.3,29.94,West,263,0.0,0.0,89,0.00,,CLR,0.00,VWS V14.01,2013-03-13 10:37:00,
2013-03-13 06:42:00,31.7,29.1,29.94,West,263,0.0,0.0,90,0.00,,CLR,0.00,VWS V14.01,2013-03-13 10:42:00,
2013-03-13 06:47:00,31.5,29.1,29.94,West,263,0.0,0.0,91,0.00,,CLR,0.00,VWS V14.01,2013-03-13 10:47:00,
2013-03-13 06:52:00,31.1,28.9,29.94,West,263,0.0,0.0,91,0.00,,CLR,0.00,VWS V14.01,2013-03-13 10:52:00,
2013-03-13 06:57:00,31.0,28.9,29.94,West,263,0.0,0.0,92,0.00,,CLR,0.00,VWS V14.01,2013-03-13 10:57:00,
2013-03-13 07:02:00,30.9,28.8,29.94,West,263,0.0,0.0,92,0.00,,CLR,0.00,VWS V14.01,2013-03-13 11:02:00,
2013-03-13 07:07:00,30.6,28.6,29.94,West,263,0.0,0.0,92,0.00,,CLR,0.00,VWS V14.01,2013-03-13 11:07:00,
2013-03-13 07:12:00,30.7,28.8,29.94,West,263,0.0,0.0,92,0.00,,CLR,0.00,VWS V14.01,2013-03-13 11:12:00,
2013-03-13 07:17:00,30.4,28.6,29.94,West,263,0.0,0.0,93,0.00,,CLR,0.00,VWS V14.01,2013-03-13 11:17:00,
2013-03-13 07:22:00,30.5,28.9,29.94,West,263,0.0,0.0,94,0.00,,CLR,0.00,VWS V14.01,2013-03-13 11:22:00,
2013-03-13 07:27:00,30.5,29.0,29.94,West,263,0.0,0.0,94,0.00,,CLR,0.00,VWS V14.01,2013-03-13 11:27:00,
2013-03-13 07:32:00,30.4,29.0,29.94,West,263,0.0,0.0,94,0.00,,CLR,0.00,VWS V14.01,2013-03-13 11:32:00,
2013-03-13 07:37:00,30.2,28.8,29.94,West,263,0.0,0.0,94,0.00,,CLR,0.00,VWS V14.01,2013-03-13 11:37:00,
2013-03-13 07:42:00,30.4,29.0,29.95,West,263,0.0,0.0,95,0.00,,CLR,0.00,VWS V14.01,2013-03-13 11:42:00,
2013-03-13 07:47:00,30.4,29.1,29.94,West,263,0.0,0.0,95,0.00,,CLR,0.00,VWS V14.01,2013-03-13 11:47:00,
2013-03-13 07:52:00,30.0,28.7,29.94,West,263,0.0,0.0,95,0.00,,CLR,0.00,VWS V14.01,2013-03-13 11:52:00,
2013-03-13 07:57:00,30.2,28.9,29.94,West,263,0.0,0.0,95,0.00,,CLR,0.00,VWS V14.01,2013-03-13 11:57:00,
2013-03-13 08:02:00,30.0,28.7,29.95,West,263,0.0,0.0,95,0.00,,CLR,0.00,VWS V14.01,2013-03-13 12:02:00,
2013-03-13 08:07:00,30.1,28.8,29.95,West,263,0.0,0.0,95,0.00,,CLR,0.00,VWS V14.01,2013-03-13 12:07:00,
2013-03-13 08:12:00,30.2,28.9,29.95,West,263,0.0,0.0,95,0.00,,CLR,0.00,VWS V14.01,2013-03-13 12:12:00,
2013-03-13 08:17:00,30.4,29.1,29.95,West,263,0.0,0.0,95,0.00,,CLR,0.00,VWS V14.01,2013-03-13 12:17:00,
2013-03-13 08:22:00,30.6,29.3,29.95,West,263,0.0,0.0,95,0.00,,CLR,0.00,VWS V14.01,2013-03-13 12:22:00,
2013-03-13 08:27:00,31.2,29.9,29.95,West,263,0.0,0.0,95,0.00,,CLR,0.00,VWS V14.01,2013-03-13 12:27:00,
2013-03-13 08:32:00,31.6,30.2,29.95,West,263,0.0,0.0,95,0.00,,CLR,0.00,VWS V14.01,2013-03-13 12:32:00,
2013-03-13 08:37:00,32.7,31.1,29.95,SW,215,0.0,1.5,94,0.00,,CLR,0.00,VWS V14.01,2013-03-13 12:37:00,
2013-03-13 08:42:00,33.3,31.0,29.95,SW,215,0.0,1.5,91,0.00,,CLR,0.00,VWS V14.01,2013-03-13 12:42:00,
2013-03-13 08:47:00,34.1,31.3,29.94,SW,215,0.0,1.5,89,0.00,,CLR,0.00,VWS V14.01,2013-03-13 12:47:00,
2013-03-13 08:52:00,35.3,31.4,29.95,SW,232,1.9,3.2,85,0.00,,CLR,0.00,VWS V14.01,2013-03-13 12:52:00,
2013-03-13 08:57:00,35.8,31.1,29.95,WSW,245,0.0,4.9,83,0.00,,CLR,0.00,VWS V14.01,2013-03-13 12:57:00,
2013-03-13 09:02:00,36.9,31.1,29.95,WSW,246,0.0,3.7,79,0.00,,CLR,0.00,VWS V14.01,2013-03-13 13:02:00,
2013-03-13 09:07:00,37.4,31.4,29.95,West,271,1.3,3.7,79,0.00,,CLR,0.00,VWS V14.01,2013-03-13 13:07:00,
2013-03-13 09:12:00,37.9,31.3,29.95,WSW,250,3.1,3.9,77,0.00,,CLR,0.00,VWS V14.01,2013-03-13 13:12:00,
2013-03-13 09:17:00,38.3,30.2,29.94,SW,228,2.1,4.7,72,0.00,,CLR,0.00,VWS V14.01,2013-03-13 13:17:00,
2013-03-13 09:22:00,38.6,29.8,29.94,WSW,248,2.2,5.7,70,0.00,,CLR,0.00,VWS V14.01,2013-03-13 13:22:00,
2013-03-13 09:27:00,38.9,29.9,29.95,West,274,5.5,5.7,70,0.00,,CLR,0.00,VWS V14.01,2013-03-13 13:27:00,
2013-03-13 09:32:00,39.1,28.2,29.95,West,259,0.9,6.5,64,0.00,,CLR,0.00,VWS V14.01,2013-03-13 13:32:00,
2013-03-13 09:38:00,39.6,28.9,29.95,SW,226,2.3,6.5,65,0.00,,CLR,0.00,VWS V14.01,2013-03-13 13:38:00,
2013-03-13 09:43:00,39.5,29.2,29.95,SW,222,2.7,8.4,66,0.00,,CLR,0.00,VWS V14.01,2013-03-13 13:43:00,
2013-03-13 09:48:00,39.5,28.6,29.94,WSW,257,2.1,6.0,65,0.00,,CLR,0.00,VWS V14.01,2013-03-13 13:48:00,
2013-03-13 09:53:00,39.9,28.6,29.94,WSW,243,3.3,9.0,64,0.00,,CLR,0.00,VWS V14.01,2013-03-13 13:53:00,
2013-03-13 09:58:00,40.2,29.0,29.94,West,259,4.9,9.0,64,0.00,,CLR,0.00,VWS V14.01,2013-03-13 13:58:00,
2013-03-13 10:03:00,40.4,28.4,29.94,WNW,301,5.7,7.0,62,0.00,,CLR,0.00,VWS V14.01,2013-03-13 14:03:00,
2013-03-13 10:08:00,40.5,29.3,29.94,SSW,204,0.0,7.0,64,0.00,,CLR,0.00,VWS V14.01,2013-03-13 14:08:00,
2013-03-13 10:13:00,40.6,28.0,29.94,WNW,290,1.2,7.6,60,0.00,,CLR,0.00,VWS V14.01,2013-03-13 14:13:00,
2013-03-13 10:18:00,41.2,29.0,29.94,West,260,1.2,5.8,62,0.00,,CLR,0.00,VWS V14.01,2013-03-13 14:18:00,
2013-03-13 10:23:00,41.3,29.6,29.94,WNW,283,2.5,5.9,63,0.00,,CLR,0.00,VWS V14.01,2013-03-13 14:23:00,
2013-03-13 10:28:00,41.3,29.0,29.94,West,278,8.8,10.6,61,0.00,,CLR,0.00,VWS V14.01,2013-03-13 14:28:00,
2013-03-13 10:33:00,41.0,27.8,29.94,SSE,158,1.2,10.7,59,0.00,,CLR,0.00,VWS V14.01,2013-03-13 14:33:00,
2013-03-13 10:38:00,41.7,28.9,29.93,SSW,197,3.1,10.7,60,0.00,,CLR,0.00,VWS V14.01,2013-03-13 14:38:00,
2013-03-13 10:43:00,41.8,28.7,29.94,West,269,2.2,10.7,60,0.00,,CLR,0.00,VWS V14.01,2013-03-13 14:43:00,
2013-03-13 10:48:00,41.5,28.6,29.93,West,263,3.3,8.7,60,0.00,,CLR,0.00,VWS V14.01,2013-03-13 14:48:00,
2013-03-13 10:53:00,42.0,29.9,29.94,SW,226,3.9,8.7,62,0.00,,CLR,0.00,VWS V14.01,2013-03-13 14:53:00,
2013-03-13 10:58:00,41.6,28.7,29.94,West,281,5.7,8.7,60,0.00,,CLR,0.00,VWS V14.01,2013-03-13 14:58:00,
2013-03-13 11:03:00,41.8,28.6,29.94,WSW,245,2.3,6.4,59,0.00,,CLR,0.00,VWS V14.01,2013-03-13 15:03:00,
2013-03-13 11:08:00,42.0,29.6,29.94,WSW,248,3.8,6.4,61,0.00,,CLR,0.00,VWS V14.01,2013-03-13 15:08:00,
2013-03-13 11:13:00,42.5,30.9,29.93,WNW,301,3.8,6.5,63,0.00,,CLR,0.00,VWS V14.01,2013-03-13 15:13:00,
2013-03-13 11:18:00,42.6,29.7,29.93,West,276,3.2,4.7,60,0.00,,CLR,0.00,VWS V14.01,2013-03-13 15:18:00,
2013-03-13 11:23:00,42.4,29.8,29.93,West,270,3.8,6.3,61,0.00,,CLR,0.00,VWS V14.01,2013-03-13 15:23:00,
2013-03-13 11:28:00,42.2,30.3,29.93,SW,233,1.1,7.9,62,0.00,,CLR,0.00,VWS V14.01,2013-03-13 15:28:00,
2013-03-13 11:33:00,42.5,30.8,29.93,SSW,208,3.8,8.5,63,0.00,,CLR,0.00,VWS V14.01,2013-03-13 15:33:00,
2013-03-13 11:38:00,43.0,29.8,29.93,SW,221,1.0,9.7,59,0.00,,CLR,0.00,VWS V14.01,2013-03-13 15:38:00,
2013-03-13 11:43:00,43.1,29.8,29.93,West,260,1.9,9.7,59,0.00,,CLR,0.00,VWS V14.01,2013-03-13 15:43:00,
2013-03-13 11:48:00,43.6,30.9,29.92,West,281,3.5,9.1,61,0.00,,CLR,0.00,VWS V14.01,2013-03-13 15:48:00,
2013-03-13 11:53:00,43.3,29.6,29.92,SSW,205,3.9,9.1,58,0.00,,CLR,0.00,VWS V14.01,2013-03-13 15:53:00,
2013-03-13 11:58:00,43.5,30.7,29.92,WNW,297,3.6,9.1,60,0.00,,CLR,0.00,VWS V14.01,2013-03-13 15:58:00,
2013-03-13 12:03:00,44.4,31.4,29.92,West,260,4.3,7.0,60,0.00,,SCT046,0.00,VWS V14.01,2013-03-13 16:03:00,
2013-03-13 12:08:00,44.6,29.8,29.92,SW,215,3.0,7.0,56,0.00,,SCT046,0.00,VWS V14.01,2013-03-13 16:08:00,
2013-03-13 12:13:00,44.7,30.9,29.92,ESE,117,0.0,7.0,58,0.00,,SCT046,0.00,VWS V14.01,2013-03-13 16:13:00,
2013-03-13 12:18:00,44.4,29.9,29.92,West,276,5.1,6.8,56,0.00,,SCT046,0.00,VWS V14.01,2013-03-13 16:18:00,
2013-03-13 12:23:00,44.5,30.0,29.92,WNW,301,0.0,8.8,56,0.00,,SCT046,0.00,VWS V14.01,2013-03-13 16:23:00,
2013-03-13 12:28:00,44.7,30.2,29.92,NW,309,5.1,8.8,56,0.00,,SCT046,0.00,VWS V14.01,2013-03-13 16:28:00,
2013-03-13 12:33:00,45.1,30.4,29.92,SSW,207,3.6,7.5,56,0.00,,SCT046,0.00,VWS V14.01,2013-03-13 16:33:00,
2013-03-13 12:38:00,45.5,30.9,29.91,SW,228,4.8,7.5,56,0.00,,SCT046,0.00,VWS V14.01,2013-03-13 16:38:00,
2013-03-13 12:43:00,45.1,29.6,29.91,WSW,238,3.9,8.6,54,0.00,,SCT046,0.00,VWS V14.01,2013-03-13 16:43:00,
2013-03-13 12:48:00,44.9,29.4,29.91,West,281,8.1,9.8,54,0.00,,SCT046,0.00,VWS V14.01,2013-03-13 16:48:00,
2013-03-13 12:53:00,44.9,30.6,29.91,SW,221,1.0,9.8,57,0.00,,SCT046,0.00,VWS V14.01,2013-03-13 16:53:00,
2013-03-13 12:58:00,45.2,29.7,29.91,West,274,2.0,9.8,54,0.00,,SCT046,0.00,VWS V14.01,2013-03-13 16:58:00,
2013-03-13 13:03:00,45.7,30.2,29.91,West,271,2.7,6.3,54,0.00,,BKN060,0.00,VWS V14.01,2013-03-13 17:03:00,
2013-03-13 13:08:00,44.9,29.2,29.91,WSW,248,2.9,7.8,54,0.00,,BKN060,0.00,VWS V14.01,2013-03-13 17:08:00,
2013-03-13 13:13:00,44.5,28.8,29.91,WSW,250,3.1,7.8,54,0.00,,BKN060,0.00,VWS V14.01,2013-03-13 17:13:00,
2013-03-13 13:18:00,43.8,28.2,29.90,SW,233,6.8,7.6,54,0.00,,BKN060,0.00,VWS V14.01,2013-03-13 17:18:00,
2013-03-13 13:23:00,43.9,27.8,29.90,WSW,252,0.0,8.5,53,0.00,,BKN060,0.00,VWS V14.01,2013-03-13 17:23:00,
2013-03-13 13:28:00,44.5,29.4,29.90,WNW,292,4.7,8.5,55,0.00,,BKN060,0.00,VWS V14.01,2013-03-13 17:28:00,
2013-03-13 13:33:00,44.4,28.5,29.90,WSW,238,2.6,7.8,53,0.00,,BKN060,0.00,VWS V14.01,2013-03-13 17:33:00,
2013-03-13 13:38:00,44.5,28.6,29.89,WSW,257,3.4,7.8,53,0.00,,BKN060,0.00,VWS V14.01,2013-03-13 17:38:00,
2013-03-13 13:43:00,44.4,27.9,29.89,WSW,255,1.4,7.8,52,0.00,,BKN060,0.00,VWS V14.01,2013-03-13 17:43:00,
2013-03-13 13:48:00,44.7,28.9,29.89,WSW,238,2.8,8.3,54,0.00,,BKN060,0.00,VWS V14.01,2013-03-13 17:48:00,
2013-03-13 13:53:00,44.9,29.5,29.89,WSW,252,0.0,8.3,55,0.00,,BKN060,0.00,VWS V14.01,2013-03-13 17:53:00,
2013-03-13 13:58:00,45.5,29.7,29.88,WSW,248,1.6,8.3,54,0.00,,BKN060,0.00,VWS V14.01,2013-03-13 17:58:00,
2013-03-13 14:03:00,45.6,30.1,29.88,SW,217,2.2,8.1,54,0.00,,OVC075,0.00,VWS V14.01,2013-03-13 18:03:00,
2013-03-13 14:08:00,45.1,28.8,29.88,West,264,4.2,8.1,53,0.00,,OVC075,0.00,VWS V14.01,2013-03-13 18:08:00,
2013-03-13 14:13:00,44.8,28.2,29.88,SW,231,2.0,9.6,52,0.00,,OVC075,0.00,VWS V14.01,2013-03-13 18:13:00,
2013-03-13 14:18:00,44.5,28.3,29.88,SW,231,1.9,7.3,53,0.00,,OVC075,0.00,VWS V14.01,2013-03-13 18:18:00,
2013-03-13 14:23:00,44.3,28.6,29.87,West,281,5.3,7.3,54,0.00,,OVC075,0.00,VWS V14.01,2013-03-13 18:23:00,
2013-03-13 14:28:00,44.3,28.4,29.87,SW,214,2.5,7.3,53,0.00,,OVC075,0.00,VWS V14.01,2013-03-13 18:28:00,
2013-03-13 14:33:00,44.6,28.7,29.87,WSW,239,0.0,6.5,53,0.00,,OVC075,0.00,VWS V14.01,2013-03-13 18:33:00,
2013-03-13 14:38:00,44.7,29.2,29.87,SSW,194,0.0,6.5,54,0.00,,OVC075,0.00,VWS V14.01,2013-03-13 18:38:00,
2013-03-13 14:43:00,44.7,29.5,29.87,SW,221,1.7,7.2,55,0.00,,OVC075,0.00,VWS V14.01,2013-03-13 18:43:00,
2013-03-13 14:48:00,44.9,29.2,29.87,West,277,3.7,5.6,54,0.00,,OVC075,0.00,VWS V14.01,2013-03-13 18:48:00,
2013-03-13 14:53:00,45.4,29.4,29.87,WSW,249,3.3,10.8,53,0.00,,OVC075,0.00,VWS V14.01,2013-03-13 18:53:00,
2013-03-13 14:58:00,45.4,29.9,29.87,WSW,249,2.9,10.8,54,0.00,,OVC075,0.00,VWS V14.01,2013-03-13 18:58:00,
2013-03-13 15:03:00,44.7,29.3,29.87,West,270,5.7,11.2,54,0.00,,OVC075,0.00,VWS V14.01,2013-03-13 19:03:00,
2013-03-13 15:08:00,44.2,29.6,29.87,SW,224,0.0,11.2,56,0.00,,BKN095,0.00,VWS V14.01,2013-03-13 19:08:00,
2013-03-13 15:13:00,44.0,28.9,29.87,WNW,290,6.0,11.2,55,0.00,,BKN095,0.00,VWS V14.01,2013-03-13 19:13:00,
2013-03-13 15:18:00,43.9,28.9,29.87,West,260,2.4,6.0,55,0.00,,BKN095,0.00,VWS V14.01,2013-03-13 19:18:00,
2013-03-13 15:23:00,44.6,28.3,29.87,SW,235,6.1,9.8,52,0.00,,BKN095,0.00,VWS V14.01,2013-03-13 19:23:00,
2013-03-13 15:28:00,44.3,28.7,29.86,SW,217,2.7,9.8,54,0.00,,BKN095,0.00,VWS V14.01,2013-03-13 19:28:00,
2013-03-13 15:33:00,44.6,28.3,29.86,SSW,197,2.4,6.0,52,0.00,,BKN095,0.00,VWS V14.01,2013-03-13 19:33:00,
2013-03-13 15:38:00,44.7,28.7,29.86,WNW,287,0.0,6.0,53,0.00,,BKN095,0.00,VWS V14.01,2013-03-13 19:38:00,
2013-03-13 15:43:00,45.1,28.9,29.86,SW,224,2.0,6.0,53,0.00,,BKN095,0.00,VWS V14.01,2013-03-13 19:43:00,
2013-03-13 15:48:00,45.1,29.1,29.86,West,269,4.1,4.9,53,0.00,,BKN095,0.00,VWS V14.01,2013-03-13 19:48:00,
2013-03-13 15:53:00,45.2,28.4,29.86,West,278,6.0,6.2,51,0.00,,BKN095,0.00,VWS V14.01,2013-03-13 19:53:00,
2013-03-13 15:58:00,45.0,29.2,29.86,WSW,249,0.0,6.2,54,0.00,,BKN095,0.00,VWS V14.01,2013-03-13 19:58:00,
2013-03-13 16:03:00,44.7,29.0,29.86,WNW,297,3.5,5.7,54,0.00,,OVC060,0.00,VWS V14.01,2013-03-13 20:03:00,
2013-03-13 16:08:00,44.4,29.7,29.87,WSW,238,4.0,11.3,56,0.00,,OVC060,0.00,VWS V14.01,2013-03-13 20:08:00,
2013-03-13 16:13:00,42.4,32.2,29.88,West,266,5.8,13.0,67,0.00,,OVC060,0.00,VWS V14.01,2013-03-13 20:13:00,
2013-03-13 16:18:00,39.0,34.9,29.89,West,273,6.3,14.4,85,0.00,,OVC060,0.00,VWS V14.01,2013-03-13 20:18:00,
2013-03-13 16:23:00,37.6,35.2,29.89,West,269,8.3,14.4,91,0.00,,OVC060,0.00,VWS V14.01,2013-03-13 20:23:00,
2013-03-13 16:28:00,37.1,35.0,29.90,WNW,295,3.9,14.4,92,0.00,,OVC060,0.00,VWS V14.01,2013-03-13 20:28:00,
2013-03-13 16:33:00,36.5,34.2,29.90,West,260,7.2,8.1,91,0.00,,OVC060,0.00,VWS V14.01,2013-03-13 20:33:00,
2013-03-13 16:38:00,36.4,33.6,29.90,West,260,3.7,8.5,90,0.00,,OVC060,0.00,VWS V14.01,2013-03-13 20:38:00,
2013-03-13 16:43:00,36.9,33.8,29.90,NNW,343,0.0,8.8,89,0.00,,OVC060,0.00,VWS V14.01,2013-03-13 20:43:00,
2013-03-13 16:48:00,37.8,33.5,29.90,WSW,250,4.7,10.3,84,0.00,,OVC060,0.00,VWS V14.01,2013-03-13 20:48:00,
2013-03-13 16:53:00,38.0,33.2,29.90,WSW,248,2.4,10.3,82,0.00,,OVC060,0.00,VWS V14.01,2013-03-13 20:53:00,
2013-03-13 16:58:00,38.4,32.9,29.89,West,263,2.2,10.3,80,0.00,,OVC060,0.00,VWS V14.01,2013-03-13 20:58:00,
2013-03-13 17:03:00,38.1,32.7,29.89,WNW,285,0.0,4.3,81,0.00,,OVC070,0.00,VWS V14.01,2013-03-13 21:03:00,
2013-03-13 17:08:00,38.4,33.2,29.89,WNW,285,0.0,4.3,81,0.00,,OVC070,0.00,VWS V14.01,2013-03-13 21:08:00,
2013-03-13 17:13:00,38.5,33.0,29.89,WNW,285,0.0,4.3,80,0.00,,OVC070,0.00,VWS V14.01,2013-03-13 21:13:00,
2013-03-13 17:18:00,38.8,32.4,29.89,WSW,242,1.4,4.5,78,0.00,,OVC070,0.00,VWS V14.01,2013-03-13 21:18:00,
2013-03-13 17:23:00,39.2,32.6,29.89,WSW,246,1.4,4.5,77,0.00,,OVC070,0.00,VWS V14.01,2013-03-13 21:23:00,
2013-03-13 17:28:00,39.6,33.2,29.89,SSW,202,0.0,4.8,78,0.00,,OVC070,0.00,VWS V14.01,2013-03-13 21:28:00,
2013-03-13 17:33:00,39.5,33.2,29.89,South,179,0.0,0.0,78,0.00,,OVC070,0.00,VWS V14.01,2013-03-13 21:33:00,
2013-03-13 17:38:00,39.8,33.6,29.89,SE,145,3.9,4.0,78,0.00,,OVC070,0.00,VWS V14.01,2013-03-13 21:38:00,
2013-03-13 17:43:00,39.6,33.5,29.89,WSW,243,0.0,4.0,79,0.00,,OVC070,0.00,VWS V14.01,2013-03-13 21:43:00,
2013-03-13 17:48:00,40.0,33.8,29.89,WSW,243,0.0,0.0,78,0.00,,OVC070,0.00,VWS V14.01,2013-03-13 21:48:00,
2013-03-13 17:53:00,40.1,33.6,29.89,WSW,243,0.0,0.0,77,0.00,,OVC070,0.00,VWS V14.01,2013-03-13 21:53:00,
2013-03-13 17:58:00,40.1,32.8,29.89,West,263,1.7,3.3,75,0.00,,OVC070,0.00,VWS V14.01,2013-03-13 21:58:00,
2013-03-13 18:03:00,40.6,33.6,29.89,West,266,0.0,0.0,76,0.00,,OVC090,0.00,VWS V14.01,2013-03-13 22:03:00,
2013-03-13 18:08:00,40.8,33.2,29.89,WSW,252,5.2,5.2,74,0.00,,OVC090,0.00,VWS V14.01,2013-03-13 22:08:00,
2013-03-13 18:13:00,40.7,33.4,29.89,WSW,249,1.2,5.7,75,0.00,,OVC090,0.00,VWS V14.01,2013-03-13 22:13:00,
2013-03-13 18:18:00,41.0,33.3,29.89,SSW,195,0.0,1.7,74,0.00,,OVC090,0.00,VWS V14.01,2013-03-13 22:18:00,
2013-03-13 18:23:00,41.0,33.4,29.89,WSW,248,0.0,5.1,74,0.00,,OVC090,0.00,VWS V14.01,2013-03-13 22:23:00,
2013-03-13 18:28:00,40.8,33.5,29.89,WNW,284,1.1,5.1,75,0.00,,OVC090,0.00,VWS V14.01,2013-03-13 22:28:00,
2013-03-13 18:33:00,40.5,33.2,29.89,WNW,284,0.0,0.0,75,0.00,,OVC090,0.00,VWS V14.01,2013-03-13 22:33:00,
2013-03-13 18:38:00,40.0,33.0,29.89,SSW,200,0.0,4.7,76,0.00,,OVC090,0.00,VWS V14.01,2013-03-13 22:38:00,
2013-03-13 18:43:00,40.0,33.2,29.89,SSW,200,0.0,4.7,77,0.00,,OVC090,0.00,VWS V14.01,2013-03-13 22:43:00,
2013-03-13 18:48:00,39.7,33.2,29.89,SW,235,0.0,6.7,77,0.00,,OVC090,0.00,VWS V14.01,2013-03-13 22:48:00,
2013-03-13 18:53:00,39.5,33.0,29.89,SW,235,0.0,6.7,77,0.00,,OVC090,0.00,VWS V14.01,2013-03-13 22:53:00,
2013-03-13 18:58:00,39.4,32.9,29.90,WNW,301,1.2,7.0,77,0.00,,OVC090,0.00,VWS V14.01,2013-03-13 22:58:00,
2013-03-13 19:03:00,39.1,31.6,29.90,WSW,246,2.7,6.6,74,0.00,,OVC080,0.00,VWS V14.01,2013-03-13 23:03:00,
2013-03-13 19:08:00,39.5,30.5,29.91,WSW,253,4.4,9.6,70,0.00,,OVC080,0.00,VWS V14.01,2013-03-13 23:08:00,
2013-03-13 19:13:00,39.3,29.6,29.91,SSE,156,0.7,14.6,68,0.00,,OVC080,0.00,VWS V14.01,2013-03-13 23:13:00,
2013-03-13 19:18:00,39.6,30.5,29.91,SSW,197,3.0,8.7,70,0.00,,OVC080,0.00,VWS V14.01,2013-03-13 23:18:00,
2013-03-13 19:23:00,38.9,31.4,29.91,SE,138,0.2,9.4,74,0.00,,OVC080,0.00,VWS V14.01,2013-03-13 23:23:00,
2013-03-13 19:28:00,38.5,31.0,29.91,WSW,238,5.5,9.4,74,0.00,,OVC080,0.00,VWS V14.01,2013-03-13 23:28:00,
2013-03-13 19:33:00,38.5,31.1,29.91,SW,228,3.0,5.2,74,0.00,,OVC080,0.00,VWS V14.01,2013-03-13 23:33:00,
2013-03-13 19:38:00,38.4,30.9,29.91,South,174,0.0,5.8,74,0.00,,OVC080,0.00,VWS V14.01,2013-03-13 23:38:00,
2013-03-13 19:44:00,38.7,28.5,29.91,SW,231,4.7,8.2,67,0.00,,OVC080,0.00,VWS V14.01,2013-03-13 23:44:00,
2013-03-13 19:49:00,39.3,28.7,29.92,WSW,240,3.1,8.1,66,0.00,,OVC080,0.00,VWS V14.01,2013-03-13 23:49:00,
2013-03-13 19:54:00,39.6,28.4,29.92,SSW,202,0.0,9.6,64,0.00,,OVC080,0.00,VWS V14.01,2013-03-13 23:54:00,
2013-03-13 19:59:00,39.9,28.8,29.92,WSW,252,2.7,9.6,64,0.00,,OVC080,0.00,VWS V14.01,2013-03-13 23:59:00,
2013-03-13 20:04:00,39.8,29.1,29.92,WSW,257,5.3,8.7,65,0.00,,BKN075,0.00,VWS V14.01,2013-03-14 00:04:00,
2013-03-13 20:09:00,39.6,30.2,29.93,WSW,257,5.5,9.0,69,0.00,,BKN075,0.00,VWS V14.01,2013-03-14 00:09:00,
2013-03-13 20:14:00,38.8,30.9,29.93,SW,214,5.0,9.6,73,0.00,,BKN075,0.00,VWS V14.01,2013-03-14 00:14:00,
2013-03-13 20:19:00,38.3,30.7,29.92,SSW,198,1.6,5.5,74,0.00,,BKN075,0.00,VWS V14.01,2013-03-14 00:19:00,
2013-03-13 20:24:00,38.2,29.2,29.92,SSW,194,0.0,11.8,70,0.00,,BKN075,0.00,VWS V14.01,2013-03-14 00:24:00,
2013-03-13 20:29:00,38.1,29.5,29.92,SW,236,0.0,11.8,71,0.00,,BKN075,0.00,VWS V14.01,2013-03-14 00:29:00,
2013-03-13 20:34:00,37.8,28.5,29.93,WSW,239,4.2,9.0,69,0.00,,BKN075,0.00,VWS V14.01,2013-03-14 00:34:00,
2013-03-13 20:39:00,37.9,29.2,29.93,SW,236,4.2,9.0,71,0.00,,BKN075,0.00,VWS V14.01,2013-03-14 00:39:00,
2013-03-13 20:44:00,37.4,28.9,29.94,SW,231,2.5,9.9,71,0.00,,BKN075,0.00,VWS V14.01,2013-03-14 00:44:00,
2013-03-13 20:49:00,37.2,29.1,29.94,SW,235,3.0,6.3,72,0.00,,BKN075,0.00,VWS V14.01,2013-03-14 00:49:00,
2013-03-13 20:54:00,37.1,29.5,29.93,WSW,246,5.3,6.3,74,0.00,,BKN075,0.00,VWS V14.01,2013-03-14 00:54:00,
2013-03-13 20:59:00,36.8,29.3,29.94,West,270,2.5,7.4,74,0.00,,BKN075,0.00,VWS V14.01,2013-03-14 00:59:00,
2013-03-13 21:04:00,36.7,29.2,29.94,SW,236,2.5,9.3,74,0.00,,BKN090,0.00,VWS V14.01,2013-03-14 01:04:00,
2013-03-13 21:09:00,36.7,29.1,29.94,WSW,242,2.7,9.7,74,0.00,,BKN090,0.00,VWS V14.01,2013-03-14 01:09:00,
2013-03-13 21:14:00,36.2,28.9,29.94,West,264,1.9,12.0,74,0.00,,BKN090,0.00,VWS V14.01,2013-03-14 01:14:00,
2013-03-13 21:19:00,36.2,28.8,29.95,West,263,2.1,7.0,74,0.00,,BKN090,0.00,VWS V14.01,2013-03-14 01:19:00,
2013-03-13 21:24:00,36.1,28.8,29.94,West,259,4.2,7.0,74,0.00,,BKN090,0.00,VWS V14.01,2013-03-14 01:24:00,
2013-03-13 21:29:00,36.0,29.0,29.94,SW,229,4.5,7.0,75,0.00,,BKN090,0.00,VWS V14.01,2013-03-14 01:29:00,
2013-03-13 21:34:00,35.9,29.0,29.95,WSW,249,3.9,6.0,76,0.00,,BKN090,0.00,VWS V14.01,2013-03-14 01:34:00,
2013-03-13 21:39:00,35.7,28.4,29.95,West,280,9.3,9.3,74,0.00,,BKN090,0.00,VWS V14.01,2013-03-14 01:39:00,
2013-03-13 21:44:00,35.8,28.5,29.95,WSW,255,2.6,10.6,75,0.00,,BKN090,0.00,VWS V14.01,2013-03-14 01:44:00,
2013-03-13 21:49:00,35.7,28.6,29.95,SW,228,4.2,5.0,75,0.00,,BKN090,0.00,VWS V14.01,2013-03-14 01:49:00,
2013-03-13 21:54:00,35.4,28.2,29.95,WSW,253,4.2,9.2,75,0.00,,BKN090,0.00,VWS V14.01,2013-03-14 01:54:00,
2013-03-13 21:59:00,35.5,28.6,29.95,SW,235,4.5,9.2,76,0.00,,BKN090,0.00,VWS V14.01,2013-03-14 01:59:00,
2013-03-13 22:04:00,35.4,28.0,29.95,West,263,3.5,5.8,74,0.00,,FEW070,0.00,VWS V14.01,2013-03-14 02:04:00,
2013-03-13 22:09:00,35.3,28.5,29.95,WSW,238,3.0,5.8,76,0.00,,FEW070,0.00,VWS V14.01,2013-03-14 02:09:00,
2013-03-13 22:14:00,35.2,28.3,29.95,SSE,159,5.0,6.3,76,0.00,,FEW070,0.00,VWS V14.01,2013-03-14 02:14:00,
2013-03-13 22:19:00,35.1,28.0,29.96,SSW,211,3.4,4.7,75,0.00,,FEW070,0.00,VWS V14.01,2013-03-14 02:19:00,
2013-03-13 22:24:00,35.0,27.7,29.96,SSW,202,3.3,6.4,74,0.00,,FEW070,0.00,VWS V14.01,2013-03-14 02:24:00,
2013-03-13 22:29:00,34.9,27.4,29.96,SW,224,3.1,8.9,74,0.00,,FEW070,0.00,VWS V14.01,2013-03-14 02:29:00,
2013-03-13 22:34:00,34.7,27.5,29.96,SW,233,2.2,7.3,75,0.00,,FEW070,0.00,VWS V14.01,2013-03-14 02:34:00,
2013-03-13 22:39:00,34.5,27.7,29.96,WNW,285,3.1,7.6,76,0.00,,FEW070,0.00,VWS V14.01,2013-03-14 02:39:00,
2013-03-13 22:44:00,34.4,27.5,29.96,WSW,245,0.9,7.7,76,0.00,,FEW070,0.00,VWS V14.01,2013-03-14 02:44:00,
2013-03-13 22:49:00,34.6,27.1,29.96,WSW,238,3.5,7.1,74,0.00,,FEW070,0.00,VWS V14.01,2013-03-14 02:49:00,
2013-03-13 22:54:00,34.7,26.9,29.96,West,266,4.8,7.7,73,0.00,,FEW070,0.00,VWS V14.01,2013-03-14 02:54:00,
2013-03-13 22:59:00,34.6,27.1,29.96,SW,228,3.1,7.7,74,0.00,,FEW070,0.00,VWS V14.01,2013-03-14 02:59:00,
2013-03-13 23:04:00,34.4,26.6,29.96,West,278,1.5,6.2,73,0.00,,SCT075,0.00,VWS V14.01,2013-03-14 03:04:00,
2013-03-13 23:09:00,34.2,26.5,29.96,SW,215,3.8,6.3,73,0.00,,SCT075,0.00,VWS V14.01,2013-03-14 03:09:00,
2013-03-13 23:14:00,33.9,25.9,29.96,SW,232,0.0,8.6,72,0.00,,SCT075,0.00,VWS V14.01,2013-03-14 03:14:00,
2013-03-13 23:19:00,33.7,25.6,29.96,SW,221,3.4,9.8,72,0.00,,SCT075,0.00,VWS V14.01,2013-03-14 03:19:00,
2013-03-13 23:24:00,33.7,25.7,29.96,West,277,4.7,9.8,72,0.00,,SCT075,0.00,VWS V14.01,2013-03-14 03:24:00,
2013-03-13 23:29:00,33.7,25.4,29.96,WNW,300,4.9,9.8,71,0.00,,SCT075,0.00,VWS V14.01,2013-03-14 03:29:00,
2013-03-13 23:34:00,33.5,25.3,29.96,SW,226,3.9,8.0,72,0.00,,SCT075,0.00,VWS V14.01,2013-03-14 03:34:00,
2013-03-13 23:39:00,33.3,24.5,29.96,West,263,5.8,8.6,70,0.00,,SCT075,0.00,VWS V14.01,2013-03-14 03:39:00,
2013-03-13 23:44:00,33.4,24.9,29.96,WSW,243,2.4,8.6,70,0.00,,SCT075,0.00,VWS V14.01,2013-03-14 03:44:00,
2013-03-13 23:49:00,33.1,24.8,29.97,WSW,250,2.4,6.3,71,0.00,,SCT075,0.00,VWS V14.01,2013-03-14 03:49:00,
2013-03-13 23:54:00,32.7,24.5,29.97,WNW,290,5.5,6.6,71,0.00,,SCT075,0.00,VWS V14.01,2013-03-14 03:54:00,
2013-03-13 23:59:00,32.7,24.6,29.97,West,264,4.3,9.7,72,0.00,,SCT075,0.00,VWS V14.01,2013-03-14 03:59:00,